Weather History for Caldwell, NJ

Change the Weather History Date:

Wednesday, November 20, 2013

  Actual Average Record
Temperature  
Mean Temperature 36 °F -  
Max Temperature 44 °F 51 °F 70 °F (1953)
Min Temperature 26 °F 31 °F 14 °F (1984)
Degree Days  
Heating Degree Days 30    
Moisture  
Dew Point 15 °F    
Average Humidity 47    
Maximum Humidity 69    
Minimum Humidity 21    
Precipitation  
Precipitation 0.00 in - - ()
Sea Level Pressure  
Sea Level Pressure 30.56 in    
Wind  
Wind Speed 3 mph (NE)    
Max Wind Speed 10 mph    
Max Gust Speed -    
Visibility 10 miles    
Events      
Averages and records for this station are not official NWS values.
T = Trace of Precipitation, MM = Missing Value Source: NWS Daily Summary

Daily Weather History Graph

Daily Weather History Graph

Search for Another Location

Airport:

Trip Planner

Search our weather history database for the weather conditions in past years. The results will help you decide how hot, cold, wet, or windy it might be!

Date:

Astronomy

Nov. 20, 2013 Rise Set
Actual Time 6:50 AM EST 4:34 PM EST
Civil Twilight 6:20 AM EST 5:04 PM EST
Nautical Twilight 5:47 AM EST 5:38 PM EST
Astronomical Twilight 5:14 AM EST 6:10 PM EST
Moon 7:15 PM EST (11/20) 9:13 AM EST (11/20)
Length of Visible Light 10h 44m
Length of Day
9h 44m
Waning Gibbous, 91% of the Moon is Illuminated
Nov 20
Waning Gibbous
Nov 25
Last Quarter
Dec 2
New
Dec 9
First Quarter
Dec 17
Full

Hourly Weather History & Observations

Time (EST) Temp. Windchill Dew Point Humidity Pressure Visibility Wind Dir Wind Speed Gust Speed Precip Events Conditions
12:53 AM 33.1 °F 30.0 °F 19.0 °F 56% 30.40 in 10.0 mi Variable 3.5 mph - N/A   Clear
1:53 AM 32.0 °F - 18.0 °F 56% 30.41 in 10.0 mi Calm Calm - N/A   Clear
2:53 AM 32.0 °F - 18.0 °F 56% 30.43 in 10.0 mi Calm Calm - N/A   Clear
3:53 AM 32.0 °F 28.7 °F 18.0 °F 56% 30.45 in 10.0 mi Variable 3.5 mph - N/A   Clear
4:53 AM 30.9 °F 26.2 °F 19.0 °F 61% 30.48 in 10.0 mi NE 4.6 mph - N/A   Clear
5:53 AM 30.9 °F 26.2 °F 19.0 °F 61% 30.51 in 10.0 mi Variable 4.6 mph - N/A   Clear
6:53 AM 30.0 °F 22.4 °F 19.0 °F 64% 30.54 in 10.0 mi NNE 8.1 mph - N/A   Clear
7:53 AM 30.9 °F 24.3 °F 19.0 °F 61% 30.56 in 10.0 mi Variable 6.9 mph - N/A   Clear
8:53 AM 33.1 °F 27.7 °F 17.1 °F 52% 30.58 in 10.0 mi Variable 5.8 mph - N/A   Clear
9:53 AM 35.1 °F 30.1 °F 15.1 °F 44% 30.60 in 10.0 mi NE 5.8 mph - N/A   Clear
10:53 AM 37.9 °F 32.7 °F 12.9 °F 36% 30.60 in 10.0 mi North 6.9 mph - N/A   Clear
11:53 AM 41.0 °F 37.1 °F 12.9 °F 32% 30.58 in 10.0 mi Variable 5.8 mph - N/A   Clear
12:53 PM 43.0 °F 37.2 °F 8.1 °F 24% 30.58 in 10.0 mi East 10.4 mph - N/A   Clear
1:53 PM 44.1 °F 40.8 °F 7.0 °F 22% 30.57 in 10.0 mi NE 5.8 mph - N/A   Clear
2:53 PM 44.1 °F 42.5 °F 6.1 °F 21% 30.58 in 10.0 mi East 3.5 mph - N/A   Clear
3:53 PM 43.0 °F 40.3 °F 6.1 °F 22% 30.57 in 10.0 mi East 4.6 mph - N/A   Clear
4:53 PM 39.0 °F - 9.0 °F 29% 30.59 in 10.0 mi Calm Calm - N/A   Clear
5:53 PM 34.0 °F - 12.9 °F 42% 30.60 in 10.0 mi Calm Calm - N/A   Clear
6:53 PM 32.0 °F - 15.1 °F 50% 30.61 in 10.0 mi Calm Calm - N/A   Clear
7:53 PM 30.0 °F - 15.1 °F 54% 30.62 in 10.0 mi Calm Calm - N/A   Clear
8:53 PM 32.0 °F 28.7 °F 15.1 °F 50% 30.62 in 10.0 mi Variable 3.5 mph - N/A   Clear
9:53 PM 30.0 °F - 15.1 °F 54% 30.63 in 10.0 mi Calm Calm - N/A   Clear
10:53 PM 27.0 °F - 16.0 °F 63% 30.64 in 10.0 mi Calm Calm - N/A   Clear
11:53 PM 26.1 °F - 17.1 °F 69% 30.65 in 10.0 mi Calm Calm - N/A   Clear